Miscellaneous Local Product
Issued by NWS Hastings, NE

Home | Current Version | Previous Version | Graphics & Text | Print | Product List | Glossary On
Versions: 1 2 3 4 5 6 7 8 9 10 11 12 13 14 15 16 17 18 19 20 21 22 23 24 25 26 27 28 29 30 31 32 33 34 35 36 37 38 39 40 41 42 43 44 45 46 47 48 49 50
000
AXUS43 KGID 170002
MISGRI

GID CWA HOURLY WEATHER ROUNDUP
NATIONAL WEATHER SERVICE HASTINGS NE
700 PM CDT WED AUG 16 2017

NOTE: "FAIR" INDICATES FEW OR NO CLOUDS BELOW 12,000 FEET WITH NO
SIGNIFICANT WEATHER AND/OR OBSTRUCTIONS TO VISIBILITY.

...SOUTH CENTRAL NEBRASKA...

CITY           SKY/WX    TMP DP  RH WIND       PRES   REMARKS
GRAND ISLAND   MOSUNNY   71  65  81 NW14      29.87F
HASTINGS       MOSUNNY   71  63  75 NW12      29.88F
KEARNEY        MOSUNNY   71  63  75 NW12      29.91S
ORD            LGT RAIN  68  62  81 NW10      29.88S
YORK           MOSUNNY   73  64  73 NW8       29.84S
AURORA         MOSUNNY   72  65  80 NW13      29.85F
LEXINGTON      CLOUDY    72  61  67 NW14      29.94R
HOLDREGE       CLOUDY    68  64  85 NW3       29.93S
HEBRON         SUNNY     80  64  58 NW9       29.83F

...NEBRASKA PANHANDLE...

CITY           SKY/WX    TMP DP  RH WIND       PRES   REMARKS
CHADRON        MOSUNNY   78  46  32 E5        30.00F
ALLIANCE       SUNNY     73  49  42 N8        30.04S
SCOTTSBLUFF    SUNNY     78  46  32 CALM      30.05S
SIDNEY         MOSUNNY   75  50  41 NE15      30.08S

...WESTERN AND NORTH CENTRAL NEBRASKA...

CITY           SKY/WX    TMP DP  RH WIND       PRES   REMARKS
VALENTINE      MOSUNNY   75  54  47 NW15G23   29.94S
AINSWORTH      MOSUNNY   70  61  74 NW15      29.93F
ONEILL         CLOUDY    65  62  90 NW14G22   29.89S
BROKEN BOW     MOSUNNY   68  62  81 NW10      29.93S
IMPERIAL       MOSUNNY   76  55  48 N12       30.00F
NORTH PLATTE   MOSUNNY   72  58  61 N10       29.97S
MCCOOK         SUNNY     75  61  61 N17       29.96S

...EASTERN NEBRASKA...

CITY           SKY/WX    TMP DP  RH WIND       PRES   REMARKS
NORFOLK        LGT RAIN  69  64  84 NW13      29.80S
SO SIOUX CITY  CLOUDY    71  67  87 NW9       29.76S
TEKAMAH        MOSUNNY   75  65  70 NW6       29.76F
COLUMBUS       MOSUNNY   71  65  81 NW14      29.82F
ALBION         PTSUNNY   69  62  78 NW17G26   29.86S
OMAHA EPPLEY   MOSUNNY   78  65  63 NW16      29.77R
OFFUTT AFB     SUNNY     80  63  56 W15       29.77S
MILLARD        MOSUNNY   79  68  68 NW9       29.78S
LINCOLN        SUNNY     79  65  62 NW9       29.80F
NEBRASKA CITY  SUNNY     80  66  62 W10       29.80R
BEATRICE       SUNNY     81  65  58 W8        29.81S
FALLS CITY     MOSUNNY   82  66  58 W7        29.79R

...NORTHERN KANSAS...

CITY           SKY/WX    TMP DP  RH WIND       PRES   REMARKS
GOODLAND       SUNNY     76  54  46 N14       30.02R
HILL CITY      SUNNY     79  62  56 N18       29.92R
NORTON         CLEAR     73  55  53 NW10      29.93S
PHILLIPSBURG   SUNNY     75  59  57 NW14      29.91S
SMITH CENTER   PTSUNNY   73  57  56 NW26G38   29.89R
HAYS           MOSUNNY   83  61  47 NW16      29.89S
RUSSELL        MOSUNNY   82  60  47 NW13      29.86F
CONCORDIA      SUNNY     81  64  56 NW10      29.84R
SALINA         SUNNY     86  62  44 NW14      29.83F
TOPEKA         CLOUDY    82  71  69 VRB5      29.80S



USA.gov is the U.S. government's official web portal to all federal, state and local government web resources and services.